Terminal Aerodrome Forecast
Issued by NWS Upton, NY

Home | Current Version | Previous Version | Text Only | Print | Product List | Glossary On
Versions: 1 2 3 4 5 6 7 8 9 10 11 12 13 14 15 16 17 18 19 20 21 22 23 24 25 26
000
FTUS41 KOKX 041412 AAA
TAFEWR
TAF AMD
KEWR 041412Z 0414/0518 22004KT P6SM FEW090
     FM041600 21009KT P6SM FEW090
     FM041700 21012G18KT P6SM FEW080 SCT250
     FM042000 20015G22KT P6SM FEW080 SCT250
     FM050200 21012KT P6SM FEW070 SCT250
     FM050600 22008KT P6SM FEW070 SCT250
     FM050900 25006KT P6SM SCT070 SCT150 BKN250 PROB30 0515/0518
      -SHRA=

USA.gov is the U.S. government's official web portal to all federal, state and local government web resources and services.